When you browse on this site, cookies collect data to enhance your experience and personalize the content and advertising you see.
Visit our Privacy Policy to learn more. By continuing to use the site, you agree to this use of cookies and data.
  • In Czech Republic
  • List of Countries
  • For 7 days
  • Water Temperature
  • Satellite Maps
  • Weather Map
  • Weather Widgets
  • user-avatar
    Login

    Hourly Weather Algiers

    Today, 13 December, Thursday

    Time Temperature Precipitation Wind Pressure Humidity
    00:00 +12°C° 0 mm 5 mps 750 mmHg 69%
    01:00 +12°C° 0 mm 5 mps 750 mmHg 68%
    02:00 +12°C° 0 mm 5 mps 749 mmHg 66%
    03:00 +12°C° 0 mm 4 mps 749 mmHg 65%
    04:00 +12°C° 0 mm 5 mps 749 mmHg 64%
    05:00 +12°C° 0 mm 5 mps 748 mmHg 63%
    06:00 +12°C° 0 mm 5 mps 748 mmHg 63%
    07:00 +13°C° 0 mm 5 mps 748 mmHg 60%
    08:00 +14°C° 0 mm 6 mps 748 mmHg 58%
    09:00 +15°C° 0 mm 6 mps 747 mmHg 55%
    10:00 +16°C° 0 mm 6 mps 747 mmHg 54%
    11:00 +17°C° 0 mm 7 mps 747 mmHg 52%
    12:00 +18°C° 0 mm 7 mps 746 mmHg 51%
    13:00 +17°C° 0.1 mm 6 mps 745 mmHg 54%
    14:00 +17°C° 0.1 mm 6 mps 745 mmHg 57%
    15:00 +16°C° 0.1 mm 6 mps 744 mmHg 61%
    16:00 +16°C° 0.6 mm 6 mps 744 mmHg 63%
    17:00 +15°C° 0.6 mm 6 mps 743 mmHg 65%
    18:00 +14°C° 0.6 mm 7 mps 743 mmHg 67%
    19:00 +13°C° 1.2 mm 8 mps 743 mmHg 70%
    20:00 +12°C° 1.2 mm 9 mps 743 mmHg 73%
    21:00 +12°C° 1.2 mm 9 mps 743 mmHg 75%
    22:00 +11°C° 0.3 mm 10 mps 743 mmHg 74%
    23:00 +9°C° 0.3 mm 10 mps 743 mmHg 73%

    Tomorrow, 14 December, Friday

    Time Temperature Precipitation Wind Pressure Humidity
    00:00 +9°C° 0.3 mm 11 mps 743 mmHg 72%
    01:00 +8°C° 1.2 mm 12 mps 743 mmHg 74%
    02:00 +8°C° 1.2 mm 13 mps 742 mmHg 77%
    03:00 +8°C° 1.2 mm 13 mps 742 mmHg 79%
    04:00 +8°C° 2.4 mm 13 mps 741 mmHg 81%
    05:00 +8°C° 2.4 mm 14 mps 741 mmHg 83%
    06:00 +6°C° 2.4 mm 14 mps 741 mmHg 84%
    07:00 +8°C° 1.4 mm 12 mps 742 mmHg 84%
    08:00 +9°C° 1.4 mm 10 mps 743 mmHg 84%
    09:00 +11°C° 1.4 mm 8 mps 743 mmHg 84%
    10:00 +11°C° 0.8 mm 8 mps 744 mmHg 82%
    11:00 +12°C° 0.8 mm 8 mps 745 mmHg 81%
    12:00 +13°C° 0.8 mm 8 mps 746 mmHg 79%
    13:00 +12°C° 2 mm 8 mps 746 mmHg 83%
    14:00 +12°C° 2 mm 9 mps 747 mmHg 87%
    15:00 +12°C° 2 mm 9 mps 748 mmHg 91%
    16:00 +12°C° 1.2 mm 9 mps 749 mmHg 90%
    17:00 +11°C° 1.2 mm 8 mps 750 mmHg 88%
    18:00 +11°C° 1.2 mm 8 mps 751 mmHg 87%
    19:00 +11°C° 0.3 mm 7 mps 751 mmHg 87%
    20:00 +11°C° 0.3 mm 6 mps 752 mmHg 88%
    21:00 +12°C° 0.3 mm 5 mps 753 mmHg 88%
    22:00 +12°C° 0.3 mm 4 mps 753 mmHg 89%
    23:00 +12°C° 0.3 mm 4 mps 753 mmHg 90%

    Day after tomorrow, 15 December, Saturday

    Time Temperature Precipitation Wind Pressure Humidity
    00:00 +12°C° 0.3 mm 4 mps 753 mmHg 90%
    01:00 +12°C° 0.2 mm 3 mps 753 mmHg 90%
    02:00 +12°C° 0.2 mm 3 mps 754 mmHg 90%
    03:00 +12°C° 0.2 mm 3 mps 754 mmHg 90%
    04:00 +11°C° 0.2 mm 4 mps 754 mmHg 89%
    05:00 +11°C° 0.2 mm 4 mps 754 mmHg 89%
    06:00 +11°C° 0.2 mm 4 mps 754 mmHg 88%
    07:00 +12°C° 0.1 mm 5 mps 755 mmHg 84%
    08:00 +12°C° 0.1 mm 5 mps 755 mmHg 80%
    09:00 +13°C° 0.1 mm 6 mps 755 mmHg 76%
    10:00 +14°C° 0 mm 6 mps 755 mmHg 71%
    11:00 +14°C° 0 mm 6 mps 755 mmHg 65%
    12:00 +15°C° 0 mm 7 mps 755 mmHg 60%
    13:00 +15°C° 0 mm 6 mps 755 mmHg 60%
    14:00 +15°C° 0 mm 6 mps 755 mmHg 60%
    15:00 +15°C° 0 mm 6 mps 755 mmHg 60%
    16:00 +14°C° 0 mm 5 mps 755 mmHg 64%
    17:00 +13°C° 0 mm 5 mps 755 mmHg 68%
    18:00 +12°C° 0 mm 4 mps 755 mmHg 72%
    19:00 +12°C° 0 mm 4 mps 755 mmHg 71%
    20:00 +12°C° 0 mm 4 mps 755 mmHg 71%
    21:00 +12°C° 0 mm 4 mps 755 mmHg 70%
    22:00 +12°C° 0 mm 4 mps 755 mmHg 67%
    23:00 +12°C° 0 mm 4 mps 755 mmHg 65%

    16 December, Sunday

    Time Temperature Precipitation Wind Pressure Humidity
    00:00 +12°C° 0 mm 4 mps 755 mmHg 62%
    01:00 +12°C° 0 mm 3 mps 755 mmHg 59%
    02:00 +12°C° 0 mm 3 mps 754 mmHg 56%
    03:00 +12°C° 0 mm 3 mps 754 mmHg 54%
    04:00 +12°C° 0 mm 3 mps 754 mmHg 53%
    05:00 +12°C° 0 mm 3 mps 754 mmHg 52%
    06:00 +12°C° 0 mm 3 mps 754 mmHg 51%
    07:00 +13°C° 0 mm 3 mps 754 mmHg 51%
    08:00 +14°C° 0 mm 3 mps 754 mmHg 51%
    09:00 +17°C° 0 mm 3 mps 754 mmHg 51%
    10:00 +18°C° 0 mm 3 mps 754 mmHg 47%
    11:00 +20°C° 0 mm 3 mps 754 mmHg 42%
    12:00 +21°C° 0 mm 2 mps 754 mmHg 38%
    13:00 +21°C° 0 mm 2 mps 754 mmHg 40%
    14:00 +21°C° 0 mm 2 mps 753 mmHg 42%
    15:00 +21°C° 0 mm 2 mps 753 mmHg 43%
    16:00 +19°C° 0 mm 2 mps 753 mmHg 46%
    17:00 +18°C° 0 mm 3 mps 754 mmHg 49%
    18:00 +16°C° 0 mm 3 mps 754 mmHg 52%
    19:00 +16°C° 0 mm 3 mps 754 mmHg 52%
    20:00 +16°C° 0 mm 3 mps 755 mmHg 51%
    21:00 +14°C° 0 mm 3 mps 755 mmHg 51%
    22:00 +14°C° 0 mm 3 mps 755 mmHg 50%
    23:00 +14°C° 0 mm 4 mps 755 mmHg 50%

    17 December, Monday

    Time Temperature Precipitation Wind Pressure Humidity
    00:00 +14°C° 0 mm 4 mps 755 mmHg 49%
    01:00 +13°C° 0 mm 3 mps 755 mmHg 52%
    02:00 +13°C° 0 mm 3 mps 755 mmHg 54%
    03:00 +12°C° 0 mm 3 mps 755 mmHg 57%
    04:00 +12°C° 0.1 mm 3 mps 755 mmHg 59%
    05:00 +13°C° 0.1 mm 2 mps 755 mmHg 62%
    06:00 +13°C° 0.1 mm 2 mps 755 mmHg 64%
    07:00 +14°C° 0.1 mm 2 mps 755 mmHg 63%
    08:00 +15°C° 0.1 mm 1 mps 756 mmHg 61%
    09:00 +16°C° 0.1 mm 1 mps 756 mmHg 60%
    10:00 +16°C° 0 mm 1 mps 756 mmHg 62%
    11:00 +18°C° 0 mm 1 mps 756 mmHg 65%
    12:00 +17°C° 0 mm 2 mps 755 mmHg 67%
    13:00 +17°C° 0.1 mm 2 mps 755 mmHg 69%
    14:00 +17°C° 0.1 mm 2 mps 755 mmHg 71%
    15:00 +17°C° 0.1 mm 3 mps 755 mmHg 73%
    16:00 +16°C° 0.1 mm 2 mps 755 mmHg 79%
    17:00 +15°C° 0.1 mm 2 mps 756 mmHg 85%
    18:00 +14°C° 0.1 mm 2 mps 756 mmHg 90%
    19:00 +13°C° 0 mm 2 mps 756 mmHg 91%
    20:00 +13°C° 0 mm 2 mps 757 mmHg 92%
    21:00 +13°C° 0 mm 1 mps 757 mmHg 93%
    22:00 +12°C° 0 mm 1 mps 757 mmHg 93%
    23:00 +12°C° 0 mm 2 mps 757 mmHg 93%

    18 December, Tuesday

    Time Temperature Precipitation Wind Pressure Humidity
    00:00 +12°C° 0 mm 2 mps 757 mmHg 93%
    01:00 +12°C° 0 mm 1 mps 757 mmHg 93%
    02:00 +12°C° 0 mm 1 mps 757 mmHg 93%
    03:00 +11°C° 0 mm 1 mps 756 mmHg 93%
    04:00 +11°C° 0 mm 1 mps 756 mmHg 92%
    05:00 +10°C° 0 mm 2 mps 756 mmHg 90%
    06:00 +10°C° 0 mm 2 mps 756 mmHg 89%
    07:00 +12°C° 0 mm 2 mps 756 mmHg 81%
    08:00 +13°C° 0 mm 2 mps 756 mmHg 74%
    09:00 +14°C° 0 mm 2 mps 756 mmHg 67%
    10:00 +16°C° 0 mm 2 mps 756 mmHg 59%
    11:00 +17°C° 0 mm 2 mps 755 mmHg 51%
    12:00 +19°C° 0 mm 2 mps 755 mmHg 43%
    13:00 +19°C° 0 mm 2 mps 754 mmHg 43%
    14:00 +19°C° 0 mm 3 mps 754 mmHg 43%
    15:00 +20°C° 0 mm 3 mps 753 mmHg 43%
    16:00 +18°C° 0 mm 3 mps 753 mmHg 47%
    17:00 +17°C° 0 mm 3 mps 753 mmHg 51%
    18:00 +14°C° 0 mm 4 mps 753 mmHg 55%
    19:00 +14°C° 0 mm 4 mps 753 mmHg 56%
    20:00 +13°C° 0 mm 4 mps 753 mmHg 57%
    21:00 +13°C° 0 mm 4 mps 753 mmHg 58%
    22:00 +13°C° 0 mm 4 mps 753 mmHg 58%
    23:00 +13°C° 0 mm 4 mps 752 mmHg 58%
    Show more